Location: Bartlow
(52.0833°N, 0.3167°E)
Time: 07:15:25
(UTC+00:00)

Meteor 2-17 Rocket - Pass Details

Date: 02 May 2024
Orbit: 934 x 957 km, 82.5° (Epoch: 26 May)

Event Time Altitude Azimuth Distance (km) Brightness Sun altitude
Exits shadow 22:28:40 - 98° (E) 2,775 6.6 -19.6°
Reaches altitude 10° 22:29:32 10° 90° (E) 2,663 6.6 -19.6°
Maximum altitude 22:31:17 11° 73° (ENE) 2,567 6.7 -19.7°
Drops below altitude 10° 22:33:01 10° 56° (ENE) 2,664 6.9 -19.8°
Sets 22:37:33 0° 25° (NNE) 3,610 8.2 -20.1°
